Regional Weather Roundup
Issued by NWS New Orleans/Baton Rouge, LA

Home | Current Version | Previous Version | Graphics & Text | Print | Product List | Glossary On
Versions: 1 2 3 4 5 6 7 8 9 10 11 12 13 14 15 16 17 18 19 20 21 22 23 24 25 26 27 28 29 30 31 32 33 34 35 36 37 38 39 40 41 42 43 44 45 46 47 48 49 50
217
ASUS44 KLIX 201201
RWRLIX
NEW ORLEANS REGIONAL WEATHER ROUNDUP
NATIONAL WEATHER SERVICE NEW ORLEANS LA
700 AM CDT SAT SEP 20 2014

NOTE: "FAIR" INDICATES FEW OR NO CLOUDS BELOW 12,000 FEET WITH NO
      SIGNIFICANT WEATHER AND/OR OBSTRUCTIONS TO VISIBILITY.
      SKY/WX - SKY CONDITION AND SIGNIFICANT WEATHER.
      TMP - AIR TEMPERATURE.     DP    - DEWPOINT TEMPERATURE.
      RH  - RELATIVE HUMIDITY.   PRES  - PRESSURE.
      HI  - HEAT INDEX.          WCI   - WIND CHILL INDEX.

*  THESE STATIONS ARE NOT NWS OR FAA STATIONS AND ARE NOT UNDER
   NWS QUALITY CONTROL.

LAZ038-040-048-061>063-065>067-069-201300-
SOUTHEAST LOUISIANA

CITY           SKY/WX    TMP DP  RH WIND       PRES   REMARKS
N.O. AUDUBON     N/A     77  72  85 MISG        N/A
6HR MIN TEMP:  76; 6HR MAX TEMP:  79;

N.O. INTL ARPT PTCLDY    78  72  81 E12       29.96R
6HR MIN TEMP:  78; 6HR MAX TEMP:  79;

N.O. LAKEFRONT CLEAR     78  72  81 E17       29.96R
6HR MIN TEMP:  78; 6HR MAX TEMP:  80;

N.O. DOWNTOWN*   N/A     77  68  73 NE6       29.96R
6HR MIN TEMP:  77; 6HR MAX TEMP:  81;

SLIDELL        CLEAR     71  67  87 N5        29.97R
6HR MIN TEMP:  70; 6HR MAX TEMP:  73;

BATON ROUGE    CLEAR     69  67  93 NE6       29.98R
6HR MIN TEMP:  69; 6HR MAX TEMP:  72;

BOOTHVILLE     CLOUDY    81  71  71 E10       29.94R
6HR MIN TEMP:  80; 6HR MAX TEMP:  82;

BELLE CHASSE   PTCLDY    76  70  82 NE7       29.95R
6HR MIN TEMP:  74; 6HR MAX TEMP:  77;

BOGALUSA*        N/A     69  65  89 CALM      30.01R FOG
6HR MIN TEMP:  68; 6HR MAX TEMP:  70;

GALLIANO*      NOT AVBL
NEW ROADS*       N/A     68  67  97 NE5       29.98R
6HR MIN TEMP:  68; 6HR MAX TEMP:  71;

GONZALES*        N/A     71  71 100 NE3       29.96R
6HR MIN TEMP:  70; 6HR MAX TEMP:  72;

HAMMOND*       NOT AVBL
HOUMA*         PTCLDY    72  66  83 N6        29.94R
PORT FOURCHON* PTSUNNY   81  72  74 E16       29.95R

$$

MSZ070-080>082-201300-
SOUTHERN MISSISSIPPI

CITY           SKY/WX    TMP DP  RH WIND       PRES   REMARKS
MCCOMB         CLEAR     71  67  87 NE5       30.01R
6HR MIN TEMP:  70; 6HR MAX TEMP:  72;

GULFPORT       CLEAR     72  67  84 NE7       29.97R
6HR MIN TEMP:  72; 6HR MAX TEMP:  75;

BILOXI         CLEAR     72  67  85 NE9       29.98R
6HR MIN TEMP:  71; 6HR MAX TEMP:  75;

PASCAGOULA     CLEAR     69  66  90 N5        29.98R
6HR MIN TEMP:  69; 6HR MAX TEMP:  73;

STENNIS ARPT*  CLEAR     72  64  78 NE8       29.98

$$

COASTAL OBSERVATIONS
LAKE AND NEARSHORE STATIONS

STATION/POSITION TIME  TEMP    WIND        PRES    WAVE
                       AIR SEA DIR/SP/G            HT/PER
                 (UTC) (F)     (DEG/KT/KT) (MB)    (FT/S)
PASCAGOULA       1100   72      50/ 10/ 12 1014.4
WAVELAND YACHT   1100   74      60/ 13/ 15 1014.0
GRAND ISLE       1100   81 82   90/ 12/ 18 1013.7
SOUTHWEST PASS   1100   81 89   90/ 27/ 31 1013.3
NEW CANAL        1100   79 80   70/ 16/ 18 1014.3
SHELL BEACH      1100   80 77   60/ 13/ 16 1013.7

OFFSHORE STATIONS

STATION/POSITION TIME  TEMP    WIND        PRES    WAVE
                       AIR SEA DIR/SP/G            HT/PER
                 (UTC) (F)     (DEG/KT/KT) (MB)    (FT/S)
64 S DAUPHIN ISL 1120   82 84   90/ 19/ 25 1013.7    6/ 7

$$




USA.gov is the U.S. government's official web portal to all federal, state and local government web resources and services.